{"data":{"norad_id":66295,"epoch":"2026-05-24T23:01:06.670272Z","epoch_age_seconds":82579,"freshness":"FRESH","line1":"1 66295U 25248C   26144.95910498  .00019134  00000+0  73053-3 0  9999","line2":"2 66295  45.3898 240.7678 0010251 306.8118  53.1830 15.26391161 31040","mean_motion":15.26391161,"eccentricity":0.0010251,"inclination_deg":45.3898,"raan_deg":240.7678,"arg_perigee_deg":306.8118,"mean_anomaly_deg":53.183,"bstar":0.00073053,"rev_number":3104,"period_min":94.340168941793,"perigee_km":479.57416457416,"apogee_km":493.64827137064,"semimajor_km":6864.7482179724,"source":"CELESTRAK","updated_at":"2026-05-25T13:38:13.572948Z"}}